User: anonymous   Login
Location: Barruelo
(41.2448°N, 3.8231°W)
Time: 17:40:20
(UTC+00:00)
Language:

Cosmos 783 Rocket - Orbit

View from above orbital plane
View from above orbital plane
View from above satellite
View from above satellite

Ground track
Ground track

The orbit is defined by the following mean orbital elements,

1 08459U          26041.44435770 +.00000000 +00000-0 +73131-4 0 00005
2 08459  74.0591  69.0344 0015329 172.0214 188.1187 14.38189862    01
Epoch (UTC): 10 February 2026 10:39:52
Eccentricity: 0.0015329
inclination: 74.0591°
perigee height: 754 km
apogee height: 775 km
right ascension of ascending node: 69.0344°
argument of perigee: 172.0214°
revolutions per day: 14.38189862
mean anomaly at epoch: 188.1187°

The dashed part of the orbit path shows where the satellite is in the earth's shadow,  

DLR